QPF
0.00 0.00 0.00 0.00 0.00 0.00 0.00 0.00 0.00 0.00 0.00 0.00 0.00 0.00 0.00 0.00 0.00 0.00 0.00 0.00 0.00 0.00 0.00 0.00 0.00 0.00 0.00 0.00 0.00 0.00 0.00 0.00 0.00 0.00 0.00 0.00 0.00 0.00 0.00 0.00 0.00 0.00 0.00 0.00 0.00 0.00 0.00 0.00 0.00
0.00 0.00 0.00 0.00 0.00 0.00 0.00 0.00 0.00 0.00 0.00 0.00 0.00 0.00 0.00 0.00 0.00 0.00 0.00 0.00 0.00 0.00 0.00 0.00 0.00 0.00 0.00 0.00 0.00 0.00 0.00 0.00 0.00 0.00 0.00 0.00 0.00 0.00 0.00 0.00 0.00 0.00 0.00 0.00 0.00 0.00 0.00 0.00 0.00
0.00 0.00 0.00 0.00 0.00 0.00 0.00 0.00 0.00 0.00 0.00 0.00 0.00 0.00 0.00 0.00 0.00 0.00 0.00 0.00 0.00 0.00 0.00 0.00 0.00 0.00 0.00 0.00 0.00 0.00 0.00 0.00 0.00 0.00 0.00 0.00 0.00 0.00 0.00 0.00 0.00 0.00 0.00 0.00 0.00 0.00 0.00 0.00 0.00
0.00 0.00 0.00 0.00 0.00 0.00 0.00 0.00 0.00 0.00 0.00 0.00 0.00 0.00 0.00 0.00 0.00 0.00 0.00 0.00 0.00 0.00 0.00 0.00 0.00 0.00 0.00 0.00 0.00 0.00 0.00 0.00 0.00 0.00 0.00 0.00 0.00 0.00 0.00 0.00 0.00 0.00 0.00 0.00 0.00 0.00 0.00 0.00 0.00
0.00 0.00 0.00 0.00 0.00 0.00 0.00 0.00 0.00 0.00 0.00 0.00 0.00 0.00 0.00 0.00 0.00 0.00 0.00 0.00 0.00 0.00 0.00 0.00 0.00 0.00 0.00 0.00 0.00 0.00 0.00 0.00 0.00 0.00 0.00 0.00 0.00 0.00 0.00 0.00 0.00 0.00 0.00 0.00 0.00 0.00 0.00 0.00 0.00
0.00 0.00 0.00 0.00 0.00 0.00 0.00 0.00 0.00 0.00 0.00 0.00 0.00 0.00 0.00 0.00 0.00 0.00 0.00 0.00 0.00 0.00 0.00 0.00 0.00 0.00 0.00 0.00 0.00 0.00 0.00 0.00 0.00 0.00 0.00 0.00 0.00 0.00 0.00 0.00 0.00 0.00 0.00 0.00 0.00 0.00 0.00 0.00 0.00
0.00 0.00 0.00 0.00 0.00 0.00 0.00 0.00 0.00 0.00 0.00 0.00 0.00 0.00 0.00 0.00 0.00 0.00 0.00 0.00 0.00 0.00 0.00 0.00 0.00 0.00 0.00 0.00 0.00 0.00 0.00 0.00 0.00 0.00 0.00 0.00 0.00 0.00 0.00 0.00 0.00 0.00 0.00 0.00 0.00 0.00 0.00 0.00 0.00
0.00 0.00 0.00 0.00 0.00 0.00 0.00 0.00 0.00 0.00 0.00 0.00 0.00 0.00 0.00 0.00 0.00 0.00 0.00 0.00 0.00 0.00 0.00 0.00 0.00 0.00 0.00 0.00 0.00 0.00 0.00 0.00 0.00 0.00 0.00 0.00 0.00 0.00 0.00 0.00 0.00 0.00 0.00 0.00 0.00 0.00 0.00 0.00 0.00
0.00 0.00 0.00 0.00 0.00 0.00 0.00 0.00 0.00 0.00 0.00 0.00 0.00 0.00 0.00 0.00 0.00 0.00 0.00 0.00 0.00 0.00 0.00 0.00 0.00 0.00 0.00 0.00 0.00 0.00 0.00 0.00 0.00 0.00 0.00 0.00 0.00 0.00 0.00 0.00 0.00 0.00 0.00 0.00 0.00 0.00 0.00 0.00 0.00
0.00 0.00 0.00 0.00 0.00 0.00 0.00 0.00 0.00 0.00 0.00 0.00 0.00 0.00 0.00 0.00 0.00 0.00 0.00 0.00 0.00 0.00 0.00 0.00 0.00 0.00 0.00 0.00 0.00 0.00 0.00 0.00 0.00 0.00 0.00 0.00 0.00 0.00 0.00 0.00 0.00 0.00 0.00 0.00 0.00 0.00 0.00 0.00 0.00
0.00 0.00 0.00 0.00 0.00 0.00 0.00 0.00 0.00 0.00 0.00 0.00 0.00 0.00 0.00 0.00 0.00 0.00 0.00 0.00 0.00 0.00 0.00 0.00 0.00 0.00 0.00 0.00 0.00 0.00 0.00 0.00 0.00 0.00 0.00 0.00 0.00 0.00 0.00 0.00 0.00 0.00 0.00 0.00 0.00 0.00 0.00 0.00 0.00
0.00 0.00 0.00 0.00 0.00 0.00 0.00 0.00 0.00 0.00 0.00 0.00 0.00 0.00 0.00 0.00 0.00 0.00 0.00 0.01 0.03 0.09 0.10 0.05 0.00 0.00 0.00 0.00 0.00 0.00 0.00 0.00 0.00 0.00 0.00 0.00 0.00 0.00 0.00 0.00 0.00 0.00 0.00 0.00 0.00 0.00 0.00 0.00 0.00
0.00 0.00 0.00 0.00 0.00 0.00 0.00 0.00 0.00 0.00 0.00 0.00 0.00 0.00 0.00 0.00 0.00 0.00 0.00 0.00 0.00 0.04 0.09 0.06 0.03 0.00 0.00 0.00 0.00 0.00 0.00 0.00 0.00 0.00 0.00 0.00 0.00 0.00 0.00 0.00 0.00 0.00 0.00 0.00 0.00 0.00 0.00 0.00 0.00
0.00 0.00 0.00 0.00 0.00 0.00 0.00 0.00 0.00 0.00 0.00 0.00 0.00 0.00 0.00 0.00 0.00 0.00 0.00 0.00 0.00 0.01 0.02 0.01 0.02 0.01 0.00 0.00 0.00 0.00 0.00 0.00 0.00 0.00 0.00 0.00 0.00 0.00 0.00 0.00 0.00 0.00 0.00 0.00 0.00 0.00 0.00 0.00 0.00
0.00 0.00 0.00 0.00 0.00 0.00 0.00 0.00 0.00 0.00 0.00 0.00 0.00 0.00 0.00 0.00 0.00 0.00 0.00 0.00 0.00 0.00 0.01 0.02 0.03 0.01 0.00 0.00 0.01 0.02 0.00 0.00 0.00 0.00 0.00 0.00 0.00 0.00 0.00 0.00 0.00 0.00 0.00 0.00 0.01 0.02 0.01 0.00 0.00
0.00 0.00 0.00 0.00 0.00 0.00 0.00 0.00 0.00 0.00 0.00 0.00 0.00 0.00 0.00 0.00 0.00 0.00 0.00 0.00 0.00 0.00 0.01 0.03 0.05 0.07 0.01 0.01 0.03 0.01 0.00 0.01 0.00 0.00 0.00 0.00 0.00 0.00 0.00 0.00 0.00 0.01 0.02 0.02 0.02 0.03 0.02 0.02 0.00
0.00 0.00 0.00 0.00 0.00 0.00 0.00 0.00 0.00 0.00 0.00 0.00 0.00 0.00 0.00 0.00 0.00 0.00 0.00 0.00 0.00 0.00 0.01 0.02 0.04 0.06 0.01 0.01 0.03 0.03 0.01 0.00 0.00 0.00 0.00 0.01 0.00 0.02 0.01 0.01 0.02 0.04 0.04 0.04 0.07 0.04 0.00 0.00 0.00
0.00 0.00 0.00 0.00 0.00 0.00 0.00 0.00 0.00 0.00 0.00 0.00 0.00 0.00 0.00 0.00 0.00 0.00 0.00 0.00 0.00 0.00 0.00 0.01 0.01 0.01 0.00 0.00 0.00 0.02 0.05 0.02 0.02 0.01 0.00 0.01 0.01 0.01 0.02 0.03 0.06 0.02 0.03 0.03 0.03 0.02 0.01 0.00 0.00
0.00 0.00 0.00 0.00 0.00 0.00 0.00 0.00 0.00 0.00 0.00 0.00 0.00 0.00 0.00 0.00 0.00 0.00 0.00 0.00 0.00 0.00 0.00 0.00 0.00 0.00 0.00 0.01 0.00 0.04 0.10 0.05 0.02 0.02 0.05 0.04 0.03 0.05 0.04 0.03 0.02 0.01 0.02 0.02 0.02 0.01 0.00 0.00 0.00
0.00 0.00 0.00 0.00 0.00 0.00 0.00 0.00 0.00 0.00 0.00 0.00 0.00 0.00 0.00 0.00 0.00 0.00 0.00 0.00 0.00 0.00 0.00 0.00 0.00 0.00 0.00 0.01 0.01 0.07 0.11 0.07 0.01 0.03 0.02 0.05 0.07 0.05 0.06 0.05 0.04 0.01 0.00 0.01 0.00 0.00 0.00 0.00 0.00
0.00 0.00 0.00 0.00 0.00 0.00 0.00 0.00 0.00 0.00 0.00 0.00 0.00 0.00 0.00 0.00 0.00 0.00 0.00 0.00 0.00 0.00 0.00 0.00 0.00 0.00 0.00 0.00 0.03 0.13 0.23 0.10 0.01 0.02 0.01 0.01 0.05 0.07 0.08 0.05 0.01 0.00 0.00 0.00 0.00 0.00 0.00 0.00 0.00
0.00 0.00 0.00 0.00 0.00 0.00 0.00 0.00 0.00 0.00 0.00 0.00 0.00 0.00 0.00 0.00 0.00 0.00 0.00 0.00 0.00 0.00 0.00 0.00 0.00 0.00 0.00 0.03 0.06 0.10 0.14 0.03 0.01 0.01 0.03 0.07 0.06 0.04 0.03 0.01 0.00 0.00 0.00 0.00 0.00 0.00 0.00 0.00 0.00
0.00 0.00 0.00 0.00 0.00 0.00 0.00 0.00 0.00 0.00 0.00 0.00 0.00 0.00 0.00 0.00 0.00 0.00 0.00 0.00 0.00 0.00 0.00 0.00 0.00 0.00 0.00 0.02 0.06 0.08 0.03 0.03 0.01 0.02 0.06 0.03 0.02 0.01 0.01 0.00 0.00 0.00 0.00 0.00 0.00 0.00 0.00 0.00 0.00
0.00 0.00 0.00 0.00 0.00 0.00 0.00 0.00 0.00 0.00 0.00 0.00 0.00 0.00 0.00 0.00 0.00 0.00 0.00 0.00 0.00 0.00 0.00 0.00 0.00 0.00 0.00 0.00 0.05 0.04 0.01 0.02 0.02 0.03 0.01 0.00 0.00 0.00 0.00 0.00 0.00 0.00 0.00 0.00 0.00 0.00 0.00 0.00 0.00
0.01 0.00 0.01 0.00 0.00 0.00 0.00 0.00 0.00 0.00 0.00 0.00 0.00 0.00 0.00 0.00 0.00 0.00 0.00 0.00 0.00 0.00 0.00 0.00 0.00 0.01 0.01 0.01 0.09 0.04 0.11 0.08 0.03 0.01 0.01 0.00 0.00 0.00 0.00 0.00 0.00 0.00 0.00 0.00 0.00 0.00 0.00 0.00 0.00
0.00 0.02 0.01 0.00 0.00 0.00 0.00 0.00 0.00 0.00 0.00 0.00 0.00 0.00 0.00 0.00 0.00 0.00 0.00 0.00 0.00 0.00 0.00 0.00 0.00 0.01 0.02 0.05 0.10 0.05 0.04 0.04 0.03 0.01 0.01 0.01 0.00 0.00 0.00 0.00 0.00 0.00 0.00 0.00 0.00 0.00 0.00 0.00 0.00
0.00 0.01 0.03 0.02 0.01 0.01 0.00 0.00 0.00 0.00 0.00 0.00 0.00 0.00 0.00 0.00 0.00 0.00 0.00 0.00 0.00 0.00 0.00 0.00 0.00 0.00 0.02 0.07 0.04 0.02 0.02 0.03 0.01 0.03 0.03 0.01 0.00 0.00 0.00 0.00 0.00 0.00 0.00 0.00 0.00 0.00 0.00 0.00 0.00
0.00 0.01 0.05 0.04 0.02 0.01 0.00 0.00 0.00 0.00 0.00 0.00 0.00 0.00 0.00 0.00 0.00 0.00 0.00 0.00 0.01 0.02 0.00 0.00 0.00 0.01 0.01 0.02 0.02 0.02 0.00 0.01 0.02 0.03 0.02 0.00 0.00 0.00 0.00 0.00 0.00 0.00 0.00 0.00 0.00 0.00 0.00 0.00 0.00
0.00 0.00 0.05 0.03 0.01 0.02 0.00 0.00 0.00 0.00 0.00 0.00 0.00 0.00 0.00 0.00 0.00 0.00 0.00 0.00 0.01 0.02 0.01 0.01 0.00 0.01 0.00 0.01 0.01 0.01 0.00 0.01 0.02 0.02 0.01 0.00 0.00 0.00 0.00 0.00 0.00 0.00 0.00 0.00 0.00 0.00 0.00 0.00 0.00
0.00 0.00 0.02 0.02 0.01 0.00 0.00 0.00 0.00 0.00 0.00 0.00 0.00 0.00 0.00 0.00 0.00 0.00 0.00 0.00 0.02 0.05 0.03 0.02 0.02 0.00 0.01 0.03 0.01 0.01 0.00 0.00 0.01 0.00 0.00 0.00 0.00 0.00 0.00 0.00 0.00 0.00 0.00 0.00 0.00 0.00 0.00 0.00 0.00
MSLP
1010.25 1010.23 1010.46 1010.68 1011.67 1011.42 1009.81 1007.54 1005.59 1004.21 1003.67 1001.82 1001.39 1001.24 1001.26 1001.39 1002.75 1002.94 1002.08 1002.40 1003.30 1003.95 1005.35 1006.19 1007.17 1007.33 1007.56 1007.90 1008.44 1009.05 1009.54 1009.89 1010.19 1010.54 1010.84 1011.18 1011.39 1011.64 1011.90 1012.02 1012.12 1012.37 1012.71 1013.00 1013.08 1013.12 1013.14 1013.20 1013.26
1010.23 1010.11 1010.58 1011.02 1011.42 1011.06 1008.54 1006.16 1004.88 1003.24 1003.18 1001.95 1001.51 1001.50 1001.47 1001.80 1001.74 1001.85 1002.39 1002.70 1003.42 1004.10 1005.22 1005.85 1007.03 1007.31 1007.61 1008.19 1008.71 1009.01 1009.52 1009.96 1010.21 1010.59 1010.99 1011.41 1011.70 1011.97 1012.27 1012.42 1012.60 1012.64 1012.89 1013.23 1013.37 1013.43 1013.51 1013.50 1013.50
1010.21 1010.22 1010.96 1011.09 1010.66 1009.36 1007.73 1005.44 1003.54 1002.80 1002.69 1002.27 1001.65 1000.87 1000.88 1001.09 1001.21 1001.51 1001.98 1003.03 1003.86 1004.96 1005.11 1005.62 1007.00 1007.57 1007.65 1008.35 1009.06 1009.32 1009.59 1010.17 1010.58 1010.80 1011.13 1011.62 1012.06 1012.39 1012.64 1012.69 1012.87 1013.03 1013.10 1013.26 1013.44 1013.46 1013.55 1013.75 1013.81
1010.23 1010.80 1011.13 1010.61 1009.41 1007.64 1006.19 1004.83 1003.32 1002.78 1002.47 1001.84 1001.45 1001.47 1000.59 1000.11 1000.50 1001.04 1002.06 1002.66 1003.36 1005.26 1005.65 1006.01 1006.87 1007.78 1007.76 1008.48 1009.26 1009.53 1009.85 1010.32 1010.81 1011.25 1011.46 1011.80 1012.17 1012.39 1012.91 1013.17 1013.27 1013.45 1013.64 1013.76 1013.80 1013.90 1013.93 1013.87 1013.91
1010.42 1011.26 1011.44 1010.49 1008.43 1006.84 1005.83 1004.87 1003.84 1003.16 1003.14 1001.71 1001.45 1001.52 1000.83 1000.69 1000.86 1000.94 1001.52 1002.49 1003.32 1004.87 1005.85 1006.47 1006.95 1007.99 1008.16 1008.90 1009.58 1009.88 1010.19 1010.64 1011.03 1011.38 1011.70 1012.15 1012.45 1012.77 1012.96 1013.09 1013.34 1013.51 1013.79 1014.05 1014.15 1014.24 1014.41 1014.41 1014.24
1010.82 1011.25 1011.48 1010.13 1007.94 1006.71 1005.39 1004.32 1003.72 1002.80 1002.60 1001.48 1001.76 1001.59 1001.23 1000.92 1001.26 1001.54 1001.82 1002.51 1003.44 1004.58 1005.97 1006.41 1007.30 1008.17 1008.52 1009.20 1009.74 1009.99 1010.25 1010.57 1010.83 1011.09 1011.52 1012.01 1012.44 1012.86 1013.24 1013.42 1013.57 1013.70 1013.73 1014.01 1014.34 1014.38 1014.51 1014.72 1014.65
1010.60 1011.05 1010.43 1009.40 1007.92 1006.67 1004.58 1003.69 1003.43 1002.45 1002.10 1001.08 1000.67 1001.39 1001.42 1001.39 1001.66 1001.15 1001.90 1002.79 1003.94 1005.12 1005.81 1006.53 1007.34 1008.01 1008.91 1009.36 1009.73 1009.84 1010.11 1010.63 1011.10 1011.44 1011.90 1012.32 1012.52 1012.82 1013.21 1013.56 1013.73 1013.86 1013.92 1014.00 1013.97 1014.19 1014.33 1014.44 1014.55
1010.01 1010.14 1009.77 1008.72 1007.53 1005.73 1003.41 1003.36 1002.57 1002.36 1000.79 999.60 999.42 1000.68 1001.09 1000.86 1001.53 1001.97 1002.43 1003.35 1004.62 1005.50 1006.15 1006.67 1007.50 1008.24 1009.08 1009.61 1009.84 1010.09 1010.54 1011.00 1011.28 1011.72 1012.15 1012.45 1012.70 1012.95 1013.25 1013.46 1013.53 1013.89 1013.99 1014.04 1014.18 1014.12 1014.24 1014.41 1014.42
1009.04 1009.65 1008.77 1007.55 1006.47 1004.51 1002.92 1003.16 1002.11 1001.44 1000.97 999.69 998.25 998.19 998.50 999.96 1001.69 1002.70 1003.43 1004.41 1005.31 1006.28 1006.79 1007.29 1007.87 1008.23 1008.79 1009.37 1009.82 1010.19 1010.56 1011.05 1011.55 1011.98 1012.20 1012.37 1012.78 1012.91 1012.99 1013.09 1013.10 1013.51 1013.71 1013.85 1013.97 1014.07 1014.11 1014.19 1014.44
1008.79 1008.35 1006.70 1005.52 1005.08 1004.31 1003.36 1003.21 1002.42 1001.95 1001.17 1000.13 998.57 997.66 998.44 1000.02 1001.23 1002.18 1003.32 1004.15 1005.33 1006.51 1007.13 1007.47 1007.99 1008.53 1009.07 1009.58 1010.03 1010.49 1010.83 1011.23 1011.55 1011.92 1012.19 1012.73 1013.05 1013.23 1013.28 1013.02 1012.89 1012.90 1013.16 1013.53 1013.50 1013.74 1013.97 1014.21 1014.38
1007.68 1005.97 1005.86 1005.10 1004.87 1004.38 1003.61 1002.97 1002.53 1002.08 1001.30 1000.24 999.91 998.60 998.69 999.78 1000.86 1001.55 1002.52 1003.09 1003.79 1005.14 1006.37 1007.53 1008.37 1009.07 1009.74 1010.06 1010.40 1010.65 1011.04 1011.43 1011.89 1012.27 1012.51 1012.72 1013.07 1013.23 1013.35 1013.37 1013.21 1013.17 1012.96 1013.20 1013.48 1013.75 1013.94 1014.13 1014.59
1006.87 1005.41 1005.20 1004.70 1004.58 1004.11 1003.44 1002.82 1002.21 1001.97 1001.01 1000.11 999.63 999.11 998.75 999.53 1000.52 1001.29 1002.07 1003.65 1004.81 1005.99 1007.04 1007.91 1008.78 1009.30 1009.88 1010.31 1010.59 1010.91 1011.37 1011.49 1011.93 1012.06 1012.68 1012.88 1013.21 1013.26 1013.20 1013.09 1013.06 1013.21 1013.21 1013.33 1013.63 1013.62 1013.75 1014.17 1014.33
1005.92 1005.11 1004.55 1004.36 1004.18 1003.36 1003.31 1002.47 1002.01 1000.98 1000.99 1000.20 999.44 999.65 998.80 999.51 1000.10 1000.83 1001.59 1002.73 1004.30 1005.43 1006.09 1007.02 1008.27 1008.93 1009.45 1009.89 1010.62 1010.73 1011.24 1011.46 1011.86 1011.74 1011.99 1012.13 1012.31 1012.64 1012.83 1012.77 1012.85 1013.03 1013.01 1013.16 1013.48 1013.40 1013.61 1013.87 1013.96
1005.08 1004.85 1004.38 1003.75 1003.08 1003.00 1002.96 1002.22 1002.30 998.88 1000.21 1000.11 999.51 999.34 999.10 999.39 999.96 1000.96 1001.60 1002.73 1003.75 1004.58 1005.17 1005.77 1006.37 1007.73 1007.78 1009.12 1009.61 1009.47 1010.00 1010.51 1011.61 1011.81 1011.72 1012.16 1012.29 1012.56 1012.25 1012.50 1012.55 1012.58 1012.62 1013.23 1013.01 1013.08 1013.51 1013.83 1014.00
1005.29 1004.69 1003.90 1002.79 1002.56 1002.33 1002.79 1001.59 999.56 998.97 1000.15 1000.03 999.51 999.09 999.05 999.17 999.82 1000.42 1001.23 1002.27 1003.23 1004.30 1005.12 1005.31 1006.64 1007.34 1007.62 1008.92 1009.51 1009.14 1009.47 1009.84 1011.13 1011.21 1011.28 1011.55 1012.00 1012.24 1012.39 1012.80 1012.88 1012.54 1012.44 1012.93 1013.22 1013.22 1013.44 1013.96 1014.36
1005.47 1004.83 1003.92 1001.71 1002.28 1002.13 1002.52 998.93 998.78 999.11 999.65 999.68 999.52 999.02 999.15 999.62 999.97 1000.50 1001.10 1001.71 1003.24 1004.15 1004.99 1005.67 1006.36 1006.61 1007.41 1007.71 1010.11 1009.29 1008.63 1009.78 1010.65 1011.07 1011.22 1011.24 1011.60 1012.01 1012.40 1012.92 1012.89 1012.73 1012.89 1013.44 1014.06 1014.35 1014.29 1014.68 1014.70
1005.38 1004.17 1003.56 1003.00 1001.83 1001.62 1001.18 998.38 999.22 998.75 998.95 999.08 999.13 998.96 998.92 999.61 1000.29 1000.83 1001.18 1001.52 1002.45 1003.52 1004.26 1005.46 1005.79 1006.50 1007.12 1007.83 1009.30 1009.44 1008.92 1009.52 1010.16 1010.43 1010.97 1011.27 1011.40 1011.82 1012.48 1012.71 1012.80 1012.90 1013.87 1014.33 1014.66 1014.77 1014.88 1015.15 1015.08
1004.93 1004.64 1004.08 1003.02 1002.12 1001.48 1000.64 999.09 999.00 998.78 998.53 998.28 998.53 998.48 998.78 999.57 1000.49 1000.90 1001.51 1001.91 1002.33 1003.13 1003.94 1004.93 1005.70 1006.50 1007.47 1007.96 1008.26 1008.54 1009.30 1009.43 1009.38 1010.07 1010.43 1011.13 1011.42 1011.64 1012.33 1012.53 1012.87 1013.25 1014.07 1014.66 1014.75 1014.89 1015.17 1015.08 1014.90
1005.49 1004.82 1004.20 1002.84 1002.42 1001.99 1000.93 999.26 999.06 998.70 998.46 997.97 997.58 997.98 998.35 999.41 1000.01 1000.81 1001.43 1001.84 1002.78 1003.80 1004.40 1005.16 1005.78 1006.82 1007.21 1007.45 1007.80 1008.41 1009.03 1008.80 1009.24 1009.96 1010.07 1010.95 1011.25 1011.87 1012.49 1012.82 1013.36 1013.42 1013.78 1014.04 1014.52 1014.52 1014.93 1014.94 1015.00
1005.54 1005.12 1004.10 1003.24 1002.69 1002.47 1001.19 999.58 999.18 998.41 997.99 997.67 997.46 997.41 997.66 999.48 1000.15 1000.80 1001.73 1002.07 1002.55 1003.36 1004.44 1005.33 1005.51 1006.04 1006.48 1006.53 1006.61 1007.36 1008.00 1008.38 1008.41 1009.61 1010.08 1010.60 1011.51 1012.12 1012.40 1012.70 1013.30 1013.43 1013.78 1014.23 1014.66 1014.55 1014.93 1015.20 1015.25
1005.06 1005.20 1004.27 1004.00 1003.36 1002.11 1002.20 1000.60 999.43 998.43 997.51 996.94 996.73 996.38 996.98 998.57 999.45 1000.63 1001.46 1001.91 1002.32 1003.16 1003.90 1004.48 1005.08 1005.19 1005.88 1006.18 1006.52 1007.41 1007.91 1008.47 1009.16 1009.89 1010.37 1010.98 1011.34 1011.91 1012.21 1012.97 1013.21 1013.30 1013.99 1014.37 1014.78 1014.80 1014.91 1015.33 1015.59
1004.73 1005.03 1004.45 1004.28 1004.38 1002.16 1002.10 1001.00 999.24 998.60 997.88 996.76 996.07 995.91 995.78 997.51 998.31 999.44 1000.62 1001.51 1001.77 1002.42 1003.12 1003.94 1004.87 1005.01 1005.16 1005.75 1006.24 1006.81 1007.86 1008.01 1009.10 1010.02 1010.48 1011.44 1011.72 1012.15 1012.52 1012.88 1013.60 1013.65 1014.17 1014.62 1014.74 1014.77 1015.12 1015.31 1015.66
1004.16 1004.78 1004.72 1004.94 1004.77 1003.40 1002.78 1002.72 998.37 998.67 997.78 996.62 995.42 994.74 994.64 996.45 997.08 998.85 999.68 1000.20 1001.00 1001.81 1002.74 1003.39 1004.34 1004.93 1004.84 1005.35 1005.87 1006.63 1007.77 1008.37 1009.36 1010.18 1010.97 1011.54 1011.78 1012.36 1012.83 1013.14 1013.51 1013.95 1014.50 1014.84 1015.23 1015.05 1015.45 1015.58 1015.90
1004.34 1005.07 1005.35 1005.37 1005.16 1003.54 1002.43 1002.88 998.60 997.72 996.78 995.71 994.93 993.87 993.85 995.73 996.47 997.74 998.59 999.49 1000.48 1001.66 1002.58 1003.37 1004.09 1004.52 1004.94 1005.28 1005.92 1006.58 1007.76 1008.77 1009.70 1010.48 1011.22 1011.90 1012.17 1012.79 1013.34 1013.50 1013.81 1014.06 1014.82 1015.12 1015.23 1015.46 1015.50 1016.18 1016.21
1004.52 1005.37 1006.06 1005.80 1005.05 1003.21 1002.27 1002.23 998.86 997.07 996.15 995.10 994.58 993.66 993.97 995.07 995.72 996.83 998.27 999.50 1000.35 1001.39 1002.46 1003.47 1004.11 1004.27 1004.93 1005.33 1006.07 1006.81 1007.67 1008.50 1009.66 1010.55 1011.09 1011.89 1012.69 1013.56 1013.83 1013.88 1014.27 1014.51 1014.86 1015.08 1015.42 1015.60 1015.77 1016.20 1016.47
1003.91 1004.94 1005.39 1005.40 1004.34 1003.54 1001.63 1000.64 998.86 996.29 995.82 995.08 994.65 994.03 993.74 994.17 994.83 995.80 997.04 998.25 999.49 1000.76 1002.08 1003.15 1003.95 1004.11 1005.15 1005.80 1006.67 1007.44 1008.16 1008.85 1009.69 1010.50 1011.34 1012.53 1013.40 1013.90 1014.06 1014.19 1014.40 1014.79 1015.02 1015.30 1015.62 1015.93 1016.05 1015.97 1016.00
1003.33 1003.96 1004.62 1005.23 1004.68 1003.99 1001.98 999.81 998.87 996.45 995.79 995.19 994.77 994.41 993.77 993.95 994.50 994.98 996.08 997.56 998.83 1000.16 1001.56 1002.72 1003.61 1004.07 1004.89 1006.01 1006.96 1007.67 1008.54 1009.71 1010.42 1011.46 1012.49 1013.29 1013.64 1013.82 1014.07 1014.46 1015.05 1015.19 1015.71 1015.95 1016.21 1016.21 1016.16 1016.18 1016.18
1003.01 1003.31 1004.28 1004.76 1004.68 1003.85 1001.78 1000.11 998.45 996.42 995.90 996.05 995.21 994.61 993.84 994.68 993.97 994.50 995.28 996.87 998.41 999.75 1001.09 1002.41 1003.26 1003.89 1004.79 1005.68 1006.67 1007.77 1008.93 1010.06 1011.13 1012.01 1012.73 1013.47 1013.61 1013.99 1014.65 1015.19 1015.65 1016.13 1016.48 1016.59 1016.50 1016.63 1016.85 1016.77 1016.75
1003.23 1003.02 1003.51 1003.77 1004.10 1003.16 1001.59 999.01 997.29 996.38 996.82 996.68 996.04 995.18 994.53 994.24 993.84 994.32 994.88 996.27 998.03 999.73 1001.14 1002.35 1003.49 1004.19 1005.41 1006.34 1007.34 1008.61 1009.91 1010.78 1011.89 1012.61 1013.37 1013.86 1014.21 1014.65 1015.50 1016.00 1016.47 1017.18 1017.34 1017.23 1017.01 1017.32 1017.39 1017.24 1017.34
1002.70 1003.05 1003.38 1003.25 1003.33 1002.49 1001.32 998.13 996.63 996.43 996.69 996.29 996.13 995.31 994.78 993.97 994.04 994.36 995.51 997.06 998.81 1000.37 1001.62 1002.68 1003.74 1004.90 1006.13 1007.42 1008.35 1009.43 1010.51 1011.38 1012.43 1013.46 1014.10 1014.54 1014.99 1015.59 1016.26 1016.89 1017.82 1018.05 1018.10 1017.98 1017.91 1018.03 1017.93 1017.84 1017.66
Thickness
5798 5799 5798 5791 5759 5752 5760 5790 5824 5826 5830 5859 5861 5860 5856 5858 5844 5826 5890 5896 5891 5886 5874 5867 5856 5854 5852 5850 5847 5841 5837 5834 5831 5827 5825 5821 5819 5817 5813 5812 5810 5807 5804 5800 5799 5797 5796 5794 5793
5792 5795 5788 5772 5744 5735 5769 5810 5815 5836 5838 5854 5855 5851 5854 5851 5876 5880 5882 5893 5891 5885 5874 5870 5858 5854 5852 5847 5843 5841 5836 5832 5830 5826 5822 5818 5815 5813 5809 5807 5804 5803 5800 5797 5795 5793 5791 5790 5789
5785 5787 5766 5752 5739 5754 5771 5814 5834 5842 5846 5844 5842 5860 5855 5855 5877 5882 5889 5885 5882 5874 5873 5869 5856 5851 5851 5844 5838 5837 5835 5829 5825 5823 5819 5815 5810 5806 5804 5803 5800 5797 5795 5793 5791 5791 5789 5786 5784
5773 5766 5759 5742 5752 5779 5802 5815 5832 5835 5838 5844 5848 5830 5862 5882 5880 5888 5889 5888 5882 5867 5866 5862 5854 5846 5848 5841 5834 5834 5832 5828 5824 5819 5816 5811 5807 5804 5799 5796 5793 5790 5788 5786 5785 5784 5783 5783 5781
5761 5746 5730 5735 5761 5783 5803 5814 5822 5822 5821 5832 5835 5825 5842 5869 5881 5889 5889 5885 5878 5869 5860 5853 5850 5841 5842 5834 5828 5827 5826 5822 5819 5815 5811 5807 5804 5800 5797 5794 5791 5789 5786 5783 5781 5778 5776 5775 5775
5738 5735 5715 5740 5766 5783 5796 5814 5816 5822 5826 5833 5823 5824 5835 5864 5867 5876 5882 5877 5873 5865 5855 5851 5843 5837 5836 5829 5825 5824 5824 5822 5820 5818 5813 5807 5803 5798 5794 5791 5788 5786 5785 5782 5778 5777 5773 5769 5768
5730 5716 5717 5734 5752 5764 5797 5812 5803 5816 5816 5826 5842 5810 5831 5847 5859 5874 5874 5872 5863 5855 5850 5847 5839 5836 5828 5826 5823 5825 5824 5819 5815 5812 5807 5802 5799 5796 5791 5786 5784 5783 5782 5780 5779 5776 5773 5771 5767
5729 5718 5721 5732 5751 5757 5803 5803 5815 5807 5817 5854 5849 5802 5811 5843 5854 5859 5861 5861 5854 5848 5843 5840 5834 5828 5822 5820 5820 5819 5816 5812 5810 5807 5802 5798 5795 5791 5787 5784 5783 5779 5776 5775 5772 5772 5769 5766 5765
5733 5700 5707 5734 5752 5780 5794 5788 5807 5818 5815 5828 5847 5841 5852 5851 5843 5838 5839 5843 5842 5834 5832 5830 5827 5824 5821 5818 5816 5814 5811 5808 5804 5799 5796 5794 5791 5789 5787 5785 5783 5778 5775 5772 5770 5767 5766 5764 5760
5707 5703 5729 5762 5766 5765 5778 5777 5784 5792 5797 5808 5833 5849 5851 5839 5835 5830 5831 5835 5830 5822 5820 5822 5820 5816 5814 5812 5808 5805 5803 5802 5799 5795 5791 5785 5782 5780 5778 5780 5779 5777 5773 5768 5768 5764 5761 5758 5755
5708 5723 5747 5752 5756 5759 5767 5767 5781 5780 5782 5800 5804 5829 5836 5832 5825 5827 5830 5843 5837 5828 5821 5813 5809 5807 5802 5801 5799 5799 5796 5794 5789 5784 5782 5780 5777 5774 5771 5770 5769 5768 5769 5766 5762 5758 5755 5752 5748
5698 5728 5735 5744 5745 5748 5756 5767 5764 5774 5789 5809 5815 5826 5833 5825 5825 5818 5820 5825 5827 5818 5808 5801 5797 5794 5794 5791 5791 5789 5787 5787 5783 5780 5774 5773 5770 5768 5767 5767 5766 5764 5761 5759 5756 5755 5754 5750 5746
5697 5715 5725 5735 5736 5747 5749 5755 5761 5774 5791 5801 5812 5811 5822 5820 5820 5821 5823 5823 5818 5814 5810 5804 5795 5792 5790 5787 5782 5782 5781 5779 5776 5779 5778 5776 5773 5770 5764 5764 5764 5761 5760 5757 5752 5753 5750 5747 5743
5699 5702 5711 5723 5734 5735 5735 5748 5747 5795 5790 5791 5802 5807 5815 5817 5819 5810 5813 5811 5809 5811 5811 5807 5808 5796 5800 5793 5788 5790 5782 5779 5771 5772 5773 5768 5765 5763 5769 5765 5763 5761 5759 5752 5752 5750 5745 5740 5736
5682 5679 5699 5718 5729 5731 5730 5731 5759 5792 5779 5776 5787 5802 5814 5822 5818 5814 5815 5808 5804 5798 5801 5803 5797 5795 5796 5788 5779 5780 5773 5777 5772 5774 5773 5769 5763 5762 5759 5758 5755 5757 5758 5751 5746 5745 5741 5735 5729
5657 5667 5671 5723 5719 5722 5713 5737 5771 5776 5764 5766 5775 5792 5803 5809 5809 5809 5817 5813 5804 5798 5793 5793 5793 5796 5795 5788 5761 5771 5779 5775 5772 5769 5768 5766 5762 5756 5753 5747 5748 5750 5749 5740 5733 5729 5728 5721 5718
5640 5654 5665 5686 5710 5711 5711 5739 5751 5765 5759 5762 5772 5783 5796 5799 5797 5801 5809 5814 5807 5802 5798 5790 5791 5789 5785 5777 5767 5765 5773 5773 5770 5770 5763 5757 5759 5754 5746 5745 5746 5743 5732 5727 5721 5718 5714 5706 5705
5635 5634 5647 5662 5692 5696 5696 5721 5745 5751 5758 5765 5769 5782 5788 5790 5785 5792 5796 5802 5803 5800 5796 5789 5785 5780 5773 5772 5769 5773 5767 5769 5775 5769 5761 5753 5753 5751 5743 5743 5740 5735 5726 5717 5714 5709 5702 5701 5700
5614 5622 5628 5662 5680 5671 5678 5709 5723 5738 5742 5756 5770 5773 5782 5779 5784 5787 5785 5793 5790 5786 5782 5778 5776 5771 5772 5774 5767 5761 5762 5770 5771 5766 5762 5751 5748 5743 5738 5736 5728 5726 5722 5717 5709 5706 5700 5696 5691
5591 5599 5617 5644 5662 5654 5668 5687 5708 5721 5727 5744 5756 5767 5780 5767 5770 5778 5773 5779 5782 5778 5773 5769 5772 5770 5771 5774 5778 5771 5771 5771 5776 5765 5757 5751 5742 5736 5735 5732 5726 5722 5718 5709 5702 5700 5692 5686 5681
5576 5579 5606 5613 5631 5651 5645 5654 5685 5705 5722 5741 5752 5769 5775 5767 5767 5768 5766 5772 5776 5772 5770 5769 5767 5770 5769 5773 5775 5768 5769 5766 5763 5756 5749 5741 5737 5733 5729 5722 5720 5719 5710 5703 5695 5692 5687 5679 5672
5557 5581 5599 5601 5599 5613 5636 5620 5671 5686 5698 5722 5747 5758 5778 5770 5772 5770 5766 5766 5773 5775 5773 5770 5765 5768 5771 5768 5766 5765 5759 5760 5756 5749 5742 5732 5729 5724 5721 5718 5711 5709 5701 5693 5689 5685 5679 5673 5667
5558 5566 5575 5579 5579 5600 5609 5585 5663 5671 5680 5706 5740 5765 5781 5769 5772 5765 5767 5773 5773 5773 5770 5767 5764 5762 5766 5765 5763 5759 5755 5754 5748 5738 5731 5727 5725 5718 5713 5710 5705 5700 5691 5684 5677 5676 5668 5664 5655
5556 5546 5550 5558 5564 5561 5605 5582 5640 5663 5686 5712 5735 5766 5781 5762 5767 5765 5769 5771 5769 5766 5762 5759 5758 5758 5759 5759 5756 5754 5750 5744 5736 5728 5724 5719 5716 5710 5704 5701 5697 5692 5681 5674 5670 5664 5659 5646 5642
5538 5523 5507 5525 5534 5554 5610 5574 5628 5672 5695 5714 5728 5755 5766 5759 5763 5764 5761 5759 5760 5757 5754 5750 5749 5753 5753 5752 5750 5746 5744 5739 5729 5721 5717 5712 5703 5694 5693 5691 5685 5679 5673 5668 5661 5655 5649 5642 5636
5533 5525 5529 5532 5541 5554 5601 5563 5615 5686 5700 5708 5720 5738 5752 5756 5763 5762 5763 5762 5760 5755 5748 5745 5744 5748 5746 5743 5738 5737 5732 5727 5722 5716 5709 5698 5690 5685 5685 5683 5678 5671 5664 5658 5650 5645 5641 5640 5636
5542 5529 5542 5532 5544 5541 5552 5582 5616 5665 5677 5691 5707 5723 5736 5745 5749 5758 5761 5758 5756 5751 5745 5742 5741 5743 5741 5732 5727 5725 5719 5713 5707 5699 5691 5684 5682 5681 5679 5673 5663 5660 5651 5645 5639 5637 5635 5631 5629
5544 5550 5530 5521 5524 5529 5544 5559 5580 5645 5666 5671 5689 5708 5727 5727 5743 5752 5758 5756 5752 5748 5741 5737 5737 5736 5732 5726 5722 5718 5712 5702 5694 5687 5682 5678 5677 5672 5663 5657 5651 5644 5638 5635 5634 5630 5625 5622 5618
5540 5541 5536 5534 5525 5516 5535 5554 5603 5634 5636 5646 5665 5690 5707 5714 5737 5746 5757 5754 5749 5741 5734 5732 5729 5727 5720 5716 5712 5704 5694 5688 5680 5676 5671 5667 5663 5658 5648 5643 5637 5629 5625 5625 5624 5619 5616 5614 5609
5543 5537 5534 5531 5532 5531 5540 5569 5611 5613 5621 5642 5654 5678 5691 5710 5726 5736 5740 5737 5729 5724 5722 5720 5721 5714 5707 5700 5695 5689 5681 5676 5669 5663 5657 5653 5648 5643 5636 5629 5619 5616 5614 5613 5610 5606 5603 5601 5598